owner,sensor,date,latitude,longitude,air_temperature,qcFlag 
DISL,ioos:station:DISL:PPTA:1,2016-02-01T00:00:00Z,30.2791,-87.5561,17.83,1111122 
DISL,ioos:station:DISL:PPTA:1,2016-02-01T00:30:00Z,30.2791,-87.5561,17.6,1111122 
DISL,ioos:station:DISL:PPTA:1,2016-02-01T01:00:00Z,30.2791,-87.5561,17.5,1111122 
DISL,ioos:station:DISL:PPTA:1,2016-02-01T14:30:00Z,30.2791,-87.5561,18.04,1111122 
DISL,ioos:station:DISL:PPTA:1,2016-02-01T15:00:00Z,30.2791,-87.5561,18.64,1111122 
DISL,ioos:station:DISL:PPTA:1,2016-02-01T15:30:00Z,30.2791,-87.5561,19.34,1111122 
DISL,ioos:station:DISL:PPTA:1,2016-02-01T16:00:00Z,30.2791,-87.5561,20.03,1111122 
DISL,ioos:station:DISL:PPTA:1,2016-02-01T16:30:00Z,30.2791,-87.5561,19.82,1111122 
DISL,ioos:station:DISL:PPTA:1,2016-02-01T17:00:00Z,30.2791,-87.5561,20.11,1111122 
DISL,ioos:station:DISL:PPTA:1,2016-02-01T17:30:00Z,30.2791,-87.5561,20.83,1111122 
DISL,ioos:station:DISL:PPTA:1,2016-02-01T18:00:00Z,30.2791,-87.5561,20.65,1111122 
DISL,ioos:station:DISL:PPTA:1,2016-02-01T18:30:00Z,30.2791,-87.5561,21.44,1111122 
DISL,ioos:station:DISL:PPTA:1,2016-02-01T19:00:00Z,30.2791,-87.5561,21.47,1111122 
DISL,ioos:station:DISL:PPTA:1,2016-02-01T19:30:00Z,30.2791,-87.5561,20.62,1111122 
DISL,ioos:station:DISL:PPTA:1,2016-02-01T20:00:00Z,30.2791,-87.5561,19.82,1111122 
DISL,ioos:station:DISL:PPTA:1,2016-02-01T20:30:00Z,30.2791,-87.5561,19.96,1111122 
DISL,ioos:station:DISL:PPTA:1,2016-02-01T21:00:00Z,30.2791,-87.5561,19.91,1111122 
DISL,ioos:station:DISL:PPTA:1,2016-02-01T21:30:00Z,30.2791,-87.5561,20.29,1111122 
DISL,ioos:station:DISL:PPTA:1,2016-02-01T22:00:00Z,30.2791,-87.5561,20.09,1111122 
DISL,ioos:station:DISL:PPTA:1,2016-02-01T22:30:00Z,30.2791,-87.5561,19.45,1111122 
DISL,ioos:station:DISL:PPTA:1,2016-02-01T23:00:00Z,30.2791,-87.5561,19.04,1111122 
DISL,ioos:station:DISL:PPTA:1,2016-02-01T23:30:00Z,30.2791,-87.5561,18.67,1111122 
DISL,ioos:station:DISL:PPTA:1,2016-02-02T00:00:00Z,30.2791,-87.5561,18.77,1111122 
DISL,ioos:station:DISL:PPTA:1,2016-02-02T00:30:00Z,30.2791,-87.5561,18.53,1111122 
DISL,ioos:station:DISL:PPTA:1,2016-02-02T01:00:00Z,30.2791,-87.5561,18.41,1111122 
DISL,ioos:station:DISL:PPTA:1,2016-02-02T01:30:00Z,30.2791,-87.5561,18.37,1111122 
DISL,ioos:station:DISL:PPTA:1,2016-02-02T02:00:00Z,30.2791,-87.5561,18.44,1111122 
DISL,ioos:station:DISL:PPTA:1,2016-02-02T02:30:00Z,30.2791,-87.5561,18.44,1111122 
DISL,ioos:station:DISL:PPTA:1,2016-02-02T03:00:00Z,30.2791,-87.5561,18.3,1111122 
DISL,ioos:station:DISL:PPTA:1,2016-02-02T03:30:00Z,30.2791,-87.5561,18.38,1111122 
DISL,ioos:station:DISL:PPTA:1,2016-02-02T04:00:00Z,30.2791,-87.5561,18.44,1111122 
DISL,ioos:station:DISL:PPTA:1,2016-02-02T04:30:00Z,30.2791,-87.5561,18.17,1111122 
DISL,ioos:station:DISL:PPTA:1,2016-02-02T05:00:00Z,30.2791,-87.5561,18.45,1111122 
DISL,ioos:station:DISL:PPTA:1,2016-02-02T05:30:00Z,30.2791,-87.5561,18.45,1111122 
DISL,ioos:station:DISL:PPTA:1,2016-02-02T06:00:00Z,30.2791,-87.5561,18.48,1111122 
DISL,ioos:station:DISL:PPTA:1,2016-02-02T14:30:00Z,30.2791,-87.5561,19.01,1111122 
DISL,ioos:station:DISL:PPTA:1,2016-02-02T15:00:00Z,30.2791,-87.5561,19.32,1111122 
DISL,ioos:station:DISL:PPTA:1,2016-02-02T15:30:00Z,30.2791,-87.5561,18.74,1111122 
DISL,ioos:station:DISL:PPTA:1,2016-02-02T16:00:00Z,30.2791,-87.5561,19.18,1111122 
DISL,ioos:station:DISL:PPTA:1,2016-02-02T17:00:00Z,30.2791,-87.5561,19.45,1111122 
DISL,ioos:station:DISL:PPTA:1,2016-02-02T17:30:00Z,30.2791,-87.5561,13.97,1111122 
DISL,ioos:station:DISL:PPTA:1,2016-02-02T18:00:00Z,30.2791,-87.5561,13.88,1111122 
DISL,ioos:station:DISL:PPTA:1,2016-02-02T18:30:00Z,30.2791,-87.5561,13.84,1111122 
DISL,ioos:station:DISL:PPTA:1,2016-02-02T19:00:00Z,30.2791,-87.5561,14.05,1111122 
DISL,ioos:station:DISL:PPTA:1,2016-02-02T19:30:00Z,30.2791,-87.5561,14.12,1111122 
DISL,ioos:station:DISL:PPTA:1,2016-02-02T20:00:00Z,30.2791,-87.5561,14.77,1111122 
DISL,ioos:station:DISL:PPTA:1,2016-02-02T20:30:00Z,30.2791,-87.5561,15.21,1111122 
DISL,ioos:station:DISL:PPTA:1,2016-02-02T21:00:00Z,30.2791,-87.5561,14.9,1111122 
DISL,ioos:station:DISL:PPTA:1,2016-02-02T21:30:00Z,30.2791,-87.5561,15.14,1111122 
DISL,ioos:station:DISL:PPTA:1,2016-02-02T22:00:00Z,30.2791,-87.5561,15.37,1111122 
DISL,ioos:station:DISL:PPTA:1,2016-02-02T22:30:00Z,30.2791,-87.5561,15.47,1111122 
DISL,ioos:station:DISL:PPTA:1,2016-02-02T23:00:00Z,30.2791,-87.5561,15.64,1111122 
DISL,ioos:station:DISL:PPTA:1,2016-02-02T23:30:00Z,30.2791,-87.5561,15.47,1111122 
DISL,ioos:station:DISL:PPTA:1,2016-02-03T17:30:00Z,30.2791,-87.5561,14.0,11111222 
DISL,ioos:station:DISL:PPTA:1,2016-02-03T18:00:00Z,30.2791,-87.5561,13.9,11111222 
DISL,ioos:station:DISL:PPTA:1,2016-02-03T18:30:00Z,30.2791,-87.5561,13.8,11111222 
DISL,ioos:station:DISL:PPTA:1,2016-02-03T19:00:00Z,30.2791,-87.5561,14.1,11111222 
DISL,ioos:station:DISL:PPTA:1,2016-02-03T19:30:00Z,30.2791,-87.5561,14.1,11111222 
DISL,ioos:station:DISL:PPTA:1,2016-02-03T20:00:00Z,30.2791,-87.5561,14.8,11111222 
DISL,ioos:station:DISL:PPTA:1,2016-02-03T20:30:00Z,30.2791,-87.5561,15.2,11111222 
DISL,ioos:station:DISL:PPTA:1,2016-02-03T21:00:00Z,30.2791,-87.5561,14.9,11111222 
DISL,ioos:station:DISL:PPTA:1,2016-02-03T21:30:00Z,30.2791,-87.5561,15.1,11111222 
DISL,ioos:station:DISL:PPTA:1,2016-02-03T22:00:00Z,30.2791,-87.5561,15.4,11111222 
DISL,ioos:station:DISL:PPTA:1,2016-02-03T22:30:00Z,30.2791,-87.5561,15.5,11111222 
DISL,ioos:station:DISL:PPTA:1,2016-02-03T23:00:00Z,30.2791,-87.5561,15.6,11111222 
DISL,ioos:station:DISL:PPTA:1,2016-02-03T23:30:00Z,30.2791,-87.5561,15.5,11111222 
DISL,ioos:station:DISL:PPTA:1,2016-02-04T00:00:00Z,30.2791,-87.5561,15.34,1111122 
DISL,ioos:station:DISL:PPTA:1,2016-02-04T00:30:00Z,30.2791,-87.5561,15.61,1111122 
DISL,ioos:station:DISL:PPTA:1,2016-02-04T01:00:00Z,30.2791,-87.5561,15.34,1111122 
DISL,ioos:station:DISL:PPTA:1,2016-02-04T01:30:00Z,30.2791,-87.5561,15.2,1111122 
DISL,ioos:station:DISL:PPTA:1,2016-02-04T02:00:00Z,30.2791,-87.5561,14.93,1111122 
DISL,ioos:station:DISL:PPTA:1,2016-02-04T02:30:00Z,30.2791,-87.5561,14.94,1111122 
DISL,ioos:station:DISL:PPTA:1,2016-02-04T03:00:00Z,30.2791,-87.5561,15.62,1111122 
DISL,ioos:station:DISL:PPTA:1,2016-02-04T03:30:00Z,30.2791,-87.5561,15.41,1111122 
DISL,ioos:station:DISL:PPTA:1,2016-02-04T04:00:00Z,30.2791,-87.5561,15.03,1111122 
DISL,ioos:station:DISL:PPTA:1,2016-02-04T04:30:00Z,30.2791,-87.5561,14.66,1111122 
DISL,ioos:station:DISL:PPTA:1,2016-02-04T05:00:00Z,30.2791,-87.5561,14.29,1111122 
DISL,ioos:station:DISL:PPTA:1,2016-02-04T05:30:00Z,30.2791,-87.5561,13.98,1111122 
DISL,ioos:station:DISL:PPTA:1,2016-02-04T06:00:00Z,30.2791,-87.5561,13.88,1111122 
DISL,ioos:station:DISL:PPTA:1,2016-02-04T06:30:00Z,30.2791,-87.5561,13.88,1111122 
DISL,ioos:station:DISL:PPTA:1,2016-02-04T07:00:00Z,30.2791,-87.5561,13.51,1111122 
DISL,ioos:station:DISL:PPTA:1,2016-02-04T07:30:00Z,30.2791,-87.5561,13.2,1111122 
DISL,ioos:station:DISL:PPTA:1,2016-02-04T08:00:00Z,30.2791,-87.5561,12.55,1111122 
DISL,ioos:station:DISL:PPTA:1,2016-02-04T08:30:00Z,30.2791,-87.5561,12.01,1111122 
DISL,ioos:station:DISL:PPTA:1,2016-02-04T09:00:00Z,30.2791,-87.5561,11.54,1111122 
DISL,ioos:station:DISL:PPTA:1,2016-02-04T09:30:00Z,30.2791,-87.5561,10.86,1111122 
DISL,ioos:station:DISL:PPTA:1,2016-02-04T10:00:00Z,30.2791,-87.5561,10.01,1111122 
DISL,ioos:station:DISL:PPTA:1,2016-02-04T10:30:00Z,30.2791,-87.5561,9.54,1111122 
DISL,ioos:station:DISL:PPTA:1,2016-02-04T11:00:00Z,30.2791,-87.5561,9.09,1111122 
DISL,ioos:station:DISL:PPTA:1,2016-02-04T11:30:00Z,30.2791,-87.5561,8.59,1111122 
DISL,ioos:station:DISL:PPTA:1,2016-02-04T12:00:00Z,30.2791,-87.5561,8.15,1111122 
DISL,ioos:station:DISL:PPTA:1,2016-02-04T12:30:00Z,30.2791,-87.5561,8.05,1111122 
DISL,ioos:station:DISL:PPTA:1,2016-02-04T13:00:00Z,30.2791,-87.5561,7.743,1111122 
DISL,ioos:station:DISL:PPTA:1,2016-02-04T13:30:00Z,30.2791,-87.5561,7.68,1111122 
DISL,ioos:station:DISL:PPTA:1,2016-02-04T14:00:00Z,30.2791,-87.5561,8.19,1111122 
DISL,ioos:station:DISL:PPTA:1,2016-02-04T14:30:00Z,30.2791,-87.5561,8.15,1111122 
DISL,ioos:station:DISL:PPTA:1,2016-02-04T15:00:00Z,30.2791,-87.5561,8.49,1111122 
DISL,ioos:station:DISL:PPTA:1,2016-02-04T15:30:00Z,30.2791,-87.5561,8.93,1111122 
DISL,ioos:station:DISL:PPTA:1,2016-02-04T16:00:00Z,30.2791,-87.5561,9.4,1111122 
DISL,ioos:station:DISL:PPTA:1,2016-02-04T16:30:00Z,30.2791,-87.5561,10.15,1111122 
DISL,ioos:station:DISL:PPTA:1,2016-02-04T17:00:00Z,30.2791,-87.5561,10.58,1111122 
DISL,ioos:station:DISL:PPTA:1,2016-02-04T17:30:00Z,30.2791,-87.5561,11.37,1111122 
DISL,ioos:station:DISL:PPTA:1,2016-02-04T18:00:00Z,30.2791,-87.5561,11.7,1111122 
DISL,ioos:station:DISL:PPTA:1,2016-02-04T18:30:00Z,30.2791,-87.5561,12.18,1111122 
DISL,ioos:station:DISL:PPTA:1,2016-02-04T19:00:00Z,30.2791,-87.5561,12.75,1111122 
DISL,ioos:station:DISL:PPTA:1,2016-02-04T19:30:00Z,30.2791,-87.5561,12.75,1111122 
DISL,ioos:station:DISL:PPTA:1,2016-02-04T20:00:00Z,30.2791,-87.5561,12.86,1111122 
DISL,ioos:station:DISL:PPTA:1,2016-02-04T20:30:00Z,30.2791,-87.5561,12.76,1111122 
DISL,ioos:station:DISL:PPTA:1,2016-02-04T21:00:00Z,30.2791,-87.5561,12.63,1111122 
DISL,ioos:station:DISL:PPTA:1,2016-02-04T21:30:00Z,30.2791,-87.5561,13.08,1111122 
DISL,ioos:station:DISL:PPTA:1,2016-02-04T22:00:00Z,30.2791,-87.5561,12.9,1111122 
DISL,ioos:station:DISL:PPTA:1,2016-02-04T22:30:00Z,30.2791,-87.5561,12.97,1111122 
DISL,ioos:station:DISL:PPTA:1,2016-02-04T23:00:00Z,30.2791,-87.5561,12.63,1111122 
DISL,ioos:station:DISL:PPTA:1,2016-02-04T23:30:00Z,30.2791,-87.5561,11.71,1111122 
DISL,ioos:station:DISL:PPTA:1,2016-02-05T00:00:00Z,30.2791,-87.5561,11.2,1111122 
DISL,ioos:station:DISL:PPTA:1,2016-02-05T00:30:00Z,30.2791,-87.5561,10.76,1111122 
DISL,ioos:station:DISL:PPTA:1,2016-02-05T01:00:00Z,30.2791,-87.5561,10.53,1111122 
DISL,ioos:station:DISL:PPTA:1,2016-02-05T01:30:00Z,30.2791,-87.5561,10.12,1111122 
DISL,ioos:station:DISL:PPTA:1,2016-02-05T02:00:00Z,30.2791,-87.5561,9.79,1111122 
DISL,ioos:station:DISL:PPTA:1,2016-02-05T02:30:00Z,30.2791,-87.5561,9.27,1111122 
DISL,ioos:station:DISL:PPTA:1,2016-02-05T03:00:00Z,30.2791,-87.5561,9.04,1111122 
DISL,ioos:station:DISL:PPTA:1,2016-02-05T03:30:00Z,30.2791,-87.5561,8.53,1111122 
DISL,ioos:station:DISL:PPTA:1,2016-02-05T04:00:00Z,30.2791,-87.5561,8.26,1111122 
DISL,ioos:station:DISL:PPTA:1,2016-02-05T04:30:00Z,30.2791,-87.5561,7.716,1111122 
DISL,ioos:station:DISL:PPTA:1,2016-02-05T05:00:00Z,30.2791,-87.5561,7.204,1111122 
DISL,ioos:station:DISL:PPTA:1,2016-02-05T05:30:00Z,30.2791,-87.5561,6.83,1111122 
DISL,ioos:station:DISL:PPTA:1,2016-02-05T06:00:00Z,30.2791,-87.5561,6.254,1111122 
DISL,ioos:station:DISL:PPTA:1,2016-02-05T06:30:00Z,30.2791,-87.5561,5.847,1111122 
DISL,ioos:station:DISL:PPTA:1,2016-02-05T07:00:00Z,30.2791,-87.5561,5.612,1111122 
DISL,ioos:station:DISL:PPTA:1,2016-02-05T07:30:00Z,30.2791,-87.5561,5.374,1111122 
DISL,ioos:station:DISL:PPTA:1,2016-02-05T08:00:00Z,30.2791,-87.5561,4.999,1111122 
DISL,ioos:station:DISL:PPTA:1,2016-02-05T08:30:00Z,30.2791,-87.5561,4.695,1111122 
DISL,ioos:station:DISL:PPTA:1,2016-02-05T09:00:00Z,30.2791,-87.5561,4.252,1111122 
DISL,ioos:station:DISL:PPTA:1,2016-02-05T09:30:00Z,30.2791,-87.5561,3.813,1111122 
DISL,ioos:station:DISL:PPTA:1,2016-02-05T10:00:00Z,30.2791,-87.5561,3.539,1111122 
DISL,ioos:station:DISL:PPTA:1,2016-02-05T10:30:00Z,30.2791,-87.5561,3.3,1111122 
DISL,ioos:station:DISL:PPTA:1,2016-02-05T11:00:00Z,30.2791,-87.5561,2.789,1111122 
DISL,ioos:station:DISL:PPTA:1,2016-02-05T11:30:00Z,30.2791,-87.5561,2.622,1111122 
DISL,ioos:station:DISL:PPTA:1,2016-02-05T12:00:00Z,30.2791,-87.5561,2.56,1111122 
DISL,ioos:station:DISL:PPTA:1,2016-02-05T12:30:00Z,30.2791,-87.5561,2.253,1111122 
DISL,ioos:station:DISL:PPTA:1,2016-02-05T13:00:00Z,30.2791,-87.5561,2.39,1111122 
DISL,ioos:station:DISL:PPTA:1,2016-02-05T13:30:00Z,30.2791,-87.5561,3.178,1111122 
DISL,ioos:station:DISL:PPTA:1,2016-02-05T14:00:00Z,30.2791,-87.5561,4.298,1111122 
DISL,ioos:station:DISL:PPTA:1,2016-02-05T14:30:00Z,30.2791,-87.5561,4.904,1111122 
DISL,ioos:station:DISL:PPTA:1,2016-02-05T15:00:00Z,30.2791,-87.5561,5.787,1111122 
DISL,ioos:station:DISL:PPTA:1,2016-02-05T15:30:00Z,30.2791,-87.5561,6.255,1111122 
DISL,ioos:station:DISL:PPTA:1,2016-02-05T16:00:00Z,30.2791,-87.5561,7.341,1111122 
DISL,ioos:station:DISL:PPTA:1,2016-02-05T16:30:00Z,30.2791,-87.5561,7.47,1111122 
DISL,ioos:station:DISL:PPTA:1,2016-02-05T17:00:00Z,30.2791,-87.5561,8.76,1111122 
DISL,ioos:station:DISL:PPTA:1,2016-02-05T17:30:00Z,30.2791,-87.5561,9.16,1111122 
DISL,ioos:station:DISL:PPTA:1,2016-02-05T18:00:00Z,30.2791,-87.5561,9.5,1111122 
DISL,ioos:station:DISL:PPTA:1,2016-02-05T18:30:00Z,30.2791,-87.5561,9.74,1111122 
DISL,ioos:station:DISL:PPTA:1,2016-02-05T19:00:00Z,30.2791,-87.5561,10.83,1111122 
DISL,ioos:station:DISL:PPTA:1,2016-02-05T19:30:00Z,30.2791,-87.5561,11.82,1111122 
DISL,ioos:station:DISL:PPTA:1,2016-02-05T20:00:00Z,30.2791,-87.5561,11.79,1111122 
DISL,ioos:station:DISL:PPTA:1,2016-02-05T20:30:00Z,30.2791,-87.5561,12.13,1111122 
DISL,ioos:station:DISL:PPTA:1,2016-02-05T21:00:00Z,30.2791,-87.5561,12.78,1111122 
DISL,ioos:station:DISL:PPTA:1,2016-02-05T21:30:00Z,30.2791,-87.5561,13.05,1111122 
DISL,ioos:station:DISL:PPTA:1,2016-02-05T22:00:00Z,30.2791,-87.5561,12.85,1111122 
DISL,ioos:station:DISL:PPTA:1,2016-02-05T22:30:00Z,30.2791,-87.5561,12.67,1111122 
DISL,ioos:station:DISL:PPTA:1,2016-02-05T23:00:00Z,30.2791,-87.5561,12.3,1111122 
DISL,ioos:station:DISL:PPTA:1,2016-02-05T23:30:00Z,30.2791,-87.5561,11.04,1111122 
DISL,ioos:station:DISL:PPTA:1,2016-02-06T00:00:00Z,30.2791,-87.5561,10.19,1111122 
DISL,ioos:station:DISL:PPTA:1,2016-02-06T00:30:00Z,30.2791,-87.5561,9.89,1111122 
DISL,ioos:station:DISL:PPTA:1,2016-02-06T01:00:00Z,30.2791,-87.5561,9.51,1111122 
DISL,ioos:station:DISL:PPTA:1,2016-02-06T01:30:00Z,30.2791,-87.5561,8.97,1111122 
DISL,ioos:station:DISL:PPTA:1,2016-02-06T02:00:00Z,30.2791,-87.5561,8.7,1111122 
DISL,ioos:station:DISL:PPTA:1,2016-02-06T02:30:00Z,30.2791,-87.5561,8.56,1111122 
DISL,ioos:station:DISL:PPTA:1,2016-02-06T03:00:00Z,30.2791,-87.5561,8.33,1111122 
DISL,ioos:station:DISL:PPTA:1,2016-02-06T03:30:00Z,30.2791,-87.5561,8.02,1111122 
DISL,ioos:station:DISL:PPTA:1,2016-02-06T04:00:00Z,30.2791,-87.5561,7.751,1111122 
DISL,ioos:station:DISL:PPTA:1,2016-02-06T04:30:00Z,30.2791,-87.5561,7.444,1111122 
DISL,ioos:station:DISL:PPTA:1,2016-02-06T05:00:00Z,30.2791,-87.5561,7.204,1111122 
DISL,ioos:station:DISL:PPTA:1,2016-02-06T05:30:00Z,30.2791,-87.5561,6.97,1111122 
DISL,ioos:station:DISL:PPTA:1,2016-02-06T06:00:00Z,30.2791,-87.5561,6.767,1111122 
DISL,ioos:station:DISL:PPTA:1,2016-02-06T06:30:00Z,30.2791,-87.5561,6.801,1111122 
DISL,ioos:station:DISL:PPTA:1,2016-02-06T07:00:00Z,30.2791,-87.5561,6.733,1111122 
DISL,ioos:station:DISL:PPTA:1,2016-02-06T07:30:00Z,30.2791,-87.5561,6.29,1111122 
DISL,ioos:station:DISL:PPTA:1,2016-02-06T08:00:00Z,30.2791,-87.5561,5.611,1111122 
DISL,ioos:station:DISL:PPTA:1,2016-02-06T08:30:00Z,30.2791,-87.5561,5.58,1111122 
DISL,ioos:station:DISL:PPTA:1,2016-02-06T09:00:00Z,30.2791,-87.5561,5.442,1111122 
DISL,ioos:station:DISL:PPTA:1,2016-02-06T09:30:00Z,30.2791,-87.5561,5.034,1111122 
DISL,ioos:station:DISL:PPTA:1,2016-02-06T10:00:00Z,30.2791,-87.5561,4.627,1111122 
DISL,ioos:station:DISL:PPTA:1,2016-02-06T10:30:00Z,30.2791,-87.5561,3.947,1111122 
DISL,ioos:station:DISL:PPTA:1,2016-02-06T11:00:00Z,30.2791,-87.5561,3.882,1111122 
DISL,ioos:station:DISL:PPTA:1,2016-02-06T11:30:00Z,30.2791,-87.5561,3.402,1111122 
DISL,ioos:station:DISL:PPTA:1,2016-02-06T12:00:00Z,30.2791,-87.5561,3.609,1111122 
DISL,ioos:station:DISL:PPTA:1,2016-02-06T12:30:00Z,30.2791,-87.5561,3.134,1111122 
DISL,ioos:station:DISL:PPTA:1,2016-02-06T13:00:00Z,30.2791,-87.5561,3.102,1111122 
DISL,ioos:station:DISL:PPTA:1,2016-02-06T13:30:00Z,30.2791,-87.5561,4.916,1111122 
DISL,ioos:station:DISL:PPTA:1,2016-02-06T14:00:00Z,30.2791,-87.5561,5.354,1111122 
DISL,ioos:station:DISL:PPTA:1,2016-02-06T14:30:00Z,30.2791,-87.5561,6.47,1111122 
DISL,ioos:station:DISL:PPTA:1,2016-02-06T15:00:00Z,30.2791,-87.5561,7.653,1111122 
DISL,ioos:station:DISL:PPTA:1,2016-02-06T15:30:00Z,30.2791,-87.5561,9.01,1111122 
DISL,ioos:station:DISL:PPTA:1,2016-02-06T16:00:00Z,30.2791,-87.5561,10.5,1111122 
DISL,ioos:station:DISL:PPTA:1,2016-02-06T16:30:00Z,30.2791,-87.5561,11.34,1111122 
DISL,ioos:station:DISL:PPTA:1,2016-02-06T17:00:00Z,30.2791,-87.5561,10.74,1111122 
DISL,ioos:station:DISL:PPTA:1,2016-02-06T17:30:00Z,30.2791,-87.5561,10.61,1111122 
DISL,ioos:station:DISL:PPTA:1,2016-02-06T18:00:00Z,30.2791,-87.5561,10.88,1111122 
DISL,ioos:station:DISL:PPTA:1,2016-02-06T18:30:00Z,30.2791,-87.5561,11.42,1111122 
DISL,ioos:station:DISL:PPTA:1,2016-02-06T19:00:00Z,30.2791,-87.5561,11.73,1111122 
DISL,ioos:station:DISL:PPTA:1,2016-02-06T19:30:00Z,30.2791,-87.5561,11.84,1111122 
DISL,ioos:station:DISL:PPTA:1,2016-02-06T20:00:00Z,30.2791,-87.5561,12.11,1111122 
DISL,ioos:station:DISL:PPTA:1,2016-02-06T20:30:00Z,30.2791,-87.5561,12.19,1111122 
DISL,ioos:station:DISL:PPTA:1,2016-02-06T21:00:00Z,30.2791,-87.5561,12.19,1111122 
DISL,ioos:station:DISL:PPTA:1,2016-02-06T21:30:00Z,30.2791,-87.5561,12.84,1111122 
DISL,ioos:station:DISL:PPTA:1,2016-02-06T22:00:00Z,30.2791,-87.5561,12.78,1111122 
DISL,ioos:station:DISL:PPTA:1,2016-02-06T22:30:00Z,30.2791,-87.5561,11.99,1111122 
DISL,ioos:station:DISL:PPTA:1,2016-02-06T23:00:00Z,30.2791,-87.5561,12.81,1111122 
DISL,ioos:station:DISL:PPTA:1,2016-02-06T23:30:00Z,30.2791,-87.5561,11.65,1111122 
DISL,ioos:station:DISL:PPTA:1,2016-02-07T00:00:00Z,30.2791,-87.5561,11.52,1111122 
DISL,ioos:station:DISL:PPTA:1,2016-02-07T00:30:00Z,30.2791,-87.5561,10.46,1111122 
DISL,ioos:station:DISL:PPTA:1,2016-02-07T01:00:00Z,30.2791,-87.5561,10.32,1111122 
DISL,ioos:station:DISL:PPTA:1,2016-02-07T01:30:00Z,30.2791,-87.5561,9.72,1111122 
DISL,ioos:station:DISL:PPTA:1,2016-02-07T02:00:00Z,30.2791,-87.5561,9.44,1111122 
DISL,ioos:station:DISL:PPTA:1,2016-02-07T02:30:00Z,30.2791,-87.5561,8.77,1111122 
DISL,ioos:station:DISL:PPTA:1,2016-02-07T03:00:00Z,30.2791,-87.5561,8.63,1111122 
DISL,ioos:station:DISL:PPTA:1,2016-02-07T03:30:00Z,30.2791,-87.5561,8.33,1111122 
DISL,ioos:station:DISL:PPTA:1,2016-02-07T04:00:00Z,30.2791,-87.5561,7.751,1111122 
DISL,ioos:station:DISL:PPTA:1,2016-02-07T04:30:00Z,30.2791,-87.5561,7.787,1111122 
DISL,ioos:station:DISL:PPTA:1,2016-02-07T05:00:00Z,30.2791,-87.5561,7.648,1111122 
DISL,ioos:station:DISL:PPTA:1,2016-02-07T05:30:00Z,30.2791,-87.5561,7.923,1111122 
DISL,ioos:station:DISL:PPTA:1,2016-02-07T06:00:00Z,30.2791,-87.5561,7.82,1111122 
DISL,ioos:station:DISL:PPTA:1,2016-02-07T06:30:00Z,30.2791,-87.5561,7.342,1111122 
DISL,ioos:station:DISL:PPTA:1,2016-02-07T07:00:00Z,30.2791,-87.5561,6.937,1111122 
DISL,ioos:station:DISL:PPTA:1,2016-02-07T07:30:00Z,30.2791,-87.5561,6.736,1111122 
DISL,ioos:station:DISL:PPTA:1,2016-02-07T08:00:00Z,30.2791,-87.5561,6.398,1111122 
DISL,ioos:station:DISL:PPTA:1,2016-02-07T08:30:00Z,30.2791,-87.5561,6.125,1111122 
DISL,ioos:station:DISL:PPTA:1,2016-02-07T09:00:00Z,30.2791,-87.5561,5.58,1111122 
DISL,ioos:station:DISL:PPTA:1,2016-02-07T09:30:00Z,30.2791,-87.5561,5.034,1111122 
DISL,ioos:station:DISL:PPTA:1,2016-02-07T10:00:00Z,30.2791,-87.5561,5.174,1111122 
DISL,ioos:station:DISL:PPTA:1,2016-02-07T10:30:00Z,30.2791,-87.5561,5.14,1111122 
DISL,ioos:station:DISL:PPTA:1,2016-02-07T11:00:00Z,30.2791,-87.5561,4.835,1111122 
DISL,ioos:station:DISL:PPTA:1,2016-02-07T11:30:00Z,30.2791,-87.5561,4.462,1111122 
DISL,ioos:station:DISL:PPTA:1,2016-02-07T12:00:00Z,30.2791,-87.5561,4.498,1111122 
DISL,ioos:station:DISL:PPTA:1,2016-02-07T12:30:00Z,30.2791,-87.5561,3.882,1111122 
DISL,ioos:station:DISL:PPTA:1,2016-02-07T13:00:00Z,30.2791,-87.5561,4.737,1111122 
DISL,ioos:station:DISL:PPTA:1,2016-02-07T13:30:00Z,30.2791,-87.5561,5.114,1111122 
DISL,ioos:station:DISL:PPTA:1,2016-02-07T14:00:00Z,30.2791,-87.5561,6.54,1111122 
DISL,ioos:station:DISL:PPTA:1,2016-02-07T14:30:00Z,30.2791,-87.5561,7.522,1111122 
DISL,ioos:station:DISL:PPTA:1,2016-02-07T15:00:00Z,30.2791,-87.5561,9.12,1111122 
DISL,ioos:station:DISL:PPTA:1,2016-02-07T15:30:00Z,30.2791,-87.5561,9.99,1111122 
DISL,ioos:station:DISL:PPTA:1,2016-02-07T16:00:00Z,30.2791,-87.5561,11.0,1111122 
DISL,ioos:station:DISL:PPTA:1,2016-02-07T16:30:00Z,30.2791,-87.5561,11.4,1111122 
DISL,ioos:station:DISL:PPTA:1,2016-02-07T17:00:00Z,30.2791,-87.5561,12.0,1111122 
DISL,ioos:station:DISL:PPTA:1,2016-02-07T17:30:00Z,30.2791,-87.5561,12.41,1111122 
DISL,ioos:station:DISL:PPTA:1,2016-02-07T18:00:00Z,30.2791,-87.5561,12.96,1111122 
DISL,ioos:station:DISL:PPTA:1,2016-02-07T18:30:00Z,30.2791,-87.5561,12.92,1111122 
DISL,ioos:station:DISL:PPTA:1,2016-02-07T19:00:00Z,30.2791,-87.5561,13.87,1111122 
DISL,ioos:station:DISL:PPTA:1,2016-02-07T19:30:00Z,30.2791,-87.5561,13.29,1111122 
DISL,ioos:station:DISL:PPTA:1,2016-02-07T20:00:00Z,30.2791,-87.5561,13.67,1111122 
DISL,ioos:station:DISL:PPTA:1,2016-02-07T20:30:00Z,30.2791,-87.5561,15.07,1111122 
DISL,ioos:station:DISL:PPTA:1,2016-02-07T21:00:00Z,30.2791,-87.5561,15.02,1111122 
DISL,ioos:station:DISL:PPTA:1,2016-02-07T21:30:00Z,30.2791,-87.5561,14.64,1111122 
DISL,ioos:station:DISL:PPTA:1,2016-02-07T22:00:00Z,30.2791,-87.5561,14.88,1111122 
DISL,ioos:station:DISL:PPTA:1,2016-02-07T22:30:00Z,30.2791,-87.5561,14.06,1111122 
DISL,ioos:station:DISL:PPTA:1,2016-02-07T23:00:00Z,30.2791,-87.5561,12.83,1111122 
DISL,ioos:station:DISL:PPTA:1,2016-02-07T23:30:00Z,30.2791,-87.5561,11.88,1111122 
DISL,ioos:station:DISL:PPTA:1,2016-02-08T00:00:00Z,30.2791,-87.5561,11.03,1111122 
DISL,ioos:station:DISL:PPTA:1,2016-02-08T00:30:00Z,30.2791,-87.5561,10.84,1111122 
DISL,ioos:station:DISL:PPTA:1,2016-02-08T01:00:00Z,30.2791,-87.5561,10.39,1111122 
DISL,ioos:station:DISL:PPTA:1,2016-02-08T01:30:00Z,30.2791,-87.5561,9.92,1111122 
DISL,ioos:station:DISL:PPTA:1,2016-02-08T02:00:00Z,30.2791,-87.5561,9.76,1111122 
DISL,ioos:station:DISL:PPTA:1,2016-02-08T02:30:00Z,30.2791,-87.5561,10.42,1111122 
DISL,ioos:station:DISL:PPTA:1,2016-02-08T03:00:00Z,30.2791,-87.5561,10.04,1111122 
DISL,ioos:station:DISL:PPTA:1,2016-02-08T03:30:00Z,30.2791,-87.5561,9.87,1111122 
DISL,ioos:station:DISL:PPTA:1,2016-02-08T04:00:00Z,30.2791,-87.5561,10.01,1111122 
DISL,ioos:station:DISL:PPTA:1,2016-02-08T04:30:00Z,30.2791,-87.5561,10.42,1111122 
DISL,ioos:station:DISL:PPTA:1,2016-02-08T05:00:00Z,30.2791,-87.5561,10.42,1111122 
DISL,ioos:station:DISL:PPTA:1,2016-02-08T05:30:00Z,30.2791,-87.5561,10.9,1111122 
DISL,ioos:station:DISL:PPTA:1,2016-02-08T06:00:00Z,30.2791,-87.5561,11.17,1111122 
DISL,ioos:station:DISL:PPTA:1,2016-02-08T06:30:00Z,30.2791,-87.5561,11.06,1111122 
DISL,ioos:station:DISL:PPTA:1,2016-02-08T07:00:00Z,30.2791,-87.5561,11.06,1111122 
DISL,ioos:station:DISL:PPTA:1,2016-02-08T07:30:00Z,30.2791,-87.5561,10.95,1111122 
DISL,ioos:station:DISL:PPTA:1,2016-02-08T08:00:00Z,30.2791,-87.5561,10.78,1111122 
DISL,ioos:station:DISL:PPTA:1,2016-02-08T08:30:00Z,30.2791,-87.5561,10.54,1111122 
DISL,ioos:station:DISL:PPTA:1,2016-02-08T09:00:00Z,30.2791,-87.5561,10.54,1111122 
DISL,ioos:station:DISL:PPTA:1,2016-02-08T09:30:00Z,30.2791,-87.5561,10.23,1111122 
DISL,ioos:station:DISL:PPTA:1,2016-02-08T10:00:00Z,30.2791,-87.5561,9.82,1111122 
DISL,ioos:station:DISL:PPTA:1,2016-02-08T10:30:00Z,30.2791,-87.5561,9.56,1111122 
DISL,ioos:station:DISL:PPTA:1,2016-02-08T11:00:00Z,30.2791,-87.5561,9.38,1111122 
DISL,ioos:station:DISL:PPTA:1,2016-02-08T11:30:00Z,30.2791,-87.5561,9.32,1111122 
DISL,ioos:station:DISL:PPTA:1,2016-02-08T12:00:00Z,30.2791,-87.5561,9.32,1111122 
DISL,ioos:station:DISL:PPTA:1,2016-02-08T12:30:00Z,30.2791,-87.5561,9.39,1111122 
DISL,ioos:station:DISL:PPTA:1,2016-02-08T13:00:00Z,30.2791,-87.5561,9.67,1111122 
DISL,ioos:station:DISL:PPTA:1,2016-02-08T13:30:00Z,30.2791,-87.5561,10.93,1111122 
DISL,ioos:station:DISL:PPTA:1,2016-02-08T14:00:00Z,30.2791,-87.5561,12.07,1111122 
DISL,ioos:station:DISL:PPTA:1,2016-02-08T14:30:00Z,30.2791,-87.5561,12.91,1111122 
DISL,ioos:station:DISL:PPTA:1,2016-02-08T15:00:00Z,30.2791,-87.5561,13.4,1111122 